Regional Weather Roundup
Issued by NWS

Home | Current Version | Previous Version | Text Only | Print | Product List | Glossary On
Versions: 1 2 3 4 5 6 7 8 9 10 11 12 13 14 15 16 17 18 19 20 21 22 23 24 25 26 27 28 29 30 31 32 33 34 35 36 37 38 39 40 41 42 43 44 45 46 47 48 49 50
000
ASUS46 KSTO 280215
RWRCA

NORTHERN AND CENTRAL CA REGIONAL WEATHER ROUNDUP
NATIONAL WEATHER SERVICE SACRAMENTO CA
700 PM PDT WED JUL 27 2016

NOTE: FAIR INDICATES FEW OR NO CLOUDS BELOW 12,000 FEET WITH NO
SIGNIFICANT WEATHER AND/OR OBSTRUCTIONS TO VISIBILITY.

CAZ001-003-280300-
NORTHWEST AREA

CITY           SKY/WX    TMP DP  RH WIND       PRES   REMARKS
CRESCENT CITY  SUNNY     58  53  84 S10       29.90F
UKIAH          SUNNY     99  45  15 VRB3      29.82R HX  95
$$

CAZ006-505>513-280300-
BAY AREA

CITY           SKY/WX    TMP DP  RH WIND       PRES   REMARKS
SANTA ROSA     SUNNY     72  52  49 SE12      29.84R
SAN RAFAEL     N/A       84  MM  MM MISG
NAPA           SUNNY     72  56  57 S10       29.84S
CONCORD        SUNNY     96  40  14 W13       29.81S HX  92
OAKLAND CITY   N/A       68  MM  MM MISG
OAKLAND        PTSUNNY   65  55  70 NW20      29.87S
SAN FRAN CITY  N/A       59  MM  73 MISG
SAN FRAN ARPT  MOSUNNY   60  51  72 W23G30    29.87R
LIVERMORE      SUNNY     94  41  16 W9        29.83S HX  90
HAYWARD        SUNNY     71  52  50 NW12      29.85S
REDWOOD CITY   N/A       76  MM  52 MISG
MOFFETT ARPT   SUNNY     72  58  61 NW10      29.86S
SAN JOSE ARPT  PTSUNNY   80  58  46 W12       29.84S
$$
CAZ034-037-514>518-280300-
CENTRAL COAST

CITY           SKY/WX    TMP DP  RH WIND       PRES   REMARKS
WATSONVILLE    SUNNY     59  53  80 SW3       29.92F
SALINAS        SUNNY     61  53  75 W12       29.91S
MONTEREY       PTSUNNY   58  54  86 N5        29.93S
SAN LUIS OBISP SUNNY     73  54  51 NW10      29.89S
SANTA MARIA    SUNNY     66  55  67 NW8       29.91S
$$
CAZ015-016-280300-
NORTHERN SACRAMENTO VALLEY

CITY           SKY/WX    TMP DP  RH WIND       PRES   REMARKS
REDDING        SUNNY    105  44  12 S10       29.76F HX 100
RED BLUFF      SUNNY    104  48  15 S10       29.77F HX 100
OROVILLE       SUNNY    103  52  18 S8        29.78S HX 100
$$
CAZ016>018-280300-
SOUTHERN SACRAMENTO VALLEY

CITY           SKY/WX    TMP DP  RH WIND       PRES   REMARKS
BEALE AFB      SUNNY    102  51  18 S7        29.75F HX  99
LINCOLN        FAIR     104  39  11 W6        29.76F HX  98
MARYSVILLE     SUNNY    103  59  23 SE8       29.76S HX 103
SAC INTL ARPT  MOSUNNY   99  50  19 S13       29.76S HX  96
MATHER AIRPORT MOSUNNY  100  45  15 SW10      29.78S HX  96
DOWNTOWN SAC   N/A      100  MM  MM MISG
SAC EXEC ARPT  SUNNY     96  54  24 SW12      29.77S HX  94
VACAVILLE      SUNNY    101  52  19 SW7       29.78S HX  98
TRAVIS AFB     SUNNY     86  55  34 SW22      29.76F
$$
CAZ019>021-280300-
SAN JOAQUIN VALLEY

CITY           SKY/WX    TMP DP  RH WIND       PRES   REMARKS
STOCKTON       SUNNY    100  44  14 W12       29.79S HX  96
MODESTO        SUNNY    102  42  13 NW14      29.78S HX  97
MERCED         SUNNY    100  51  19 NW9       29.78S HX  97
LEMOORE        MOSUNNY  103  53  19 N9        29.78R HX 101
FRESNO         MOSUNNY  103  45  14 NW15      29.78S HX  99
HANFORD        CLOUDY   105  48  14 NW9       29.77S HX 101
PORTERVILLE    SUNNY    105  50  15 NW6       29.79S HX 102
BAKERSFIELD    SUNNY    106  40  10 N9        29.78S HX 100
$$
CAZ011-012-071-280300-
NORTHERN MOUNTAINS

CITY           SKY/WX    TMP DP  RH WIND       PRES   REMARKS
YREKA          SUNNY     93  51  23 N17       29.96R HX  90
MOUNT SHASTA   SUNNY     88  50  27 CALM      30.01S
ALTURAS        SUNNY     94  19   6 W12       30.08S
$$
CAZ011-012-071-280300-
SIERRA NEVADA MTNS

CITY           SKY/WX    TMP DP  RH WIND       PRES   REMARKS
BLUE CANYON    SUNNY     83  35  18 W6        30.21F
TRUCKEE        SUNNY     84  37  18 W9        30.23S
TAHOE VLY ARPT SUNNY     81  37  20 CALM      30.25S
MAMMOTH LAKES    N/A     83  35  18 N7        30.32R
$$



USA.gov is the U.S. government's official web portal to all federal, state and local government web resources and services.